STARLINK-4262, 53015

Orbit data source: Space-Track

STARLINK-4262, 53015 is a payload satellite owned by SpaceX/Seattle (US) in LEO that was launched on Thu, 07 Jul 2022 UTC via an FALCON 9 launch vehicle from the Air Force Eastern Test Range (AFETR). Payload-class satellites include a variety of spacecraft equipped with specific instruments for various scientific and technological missions. These include communications satellites like Starlink; space stations such as the ISS; scientific satellites like the Hubble; Earth observation satellites from companies like Planet Labs, Umbra, and HawkEye 360; GPS; miniature CubeSats for education and research; and military/defense satellites.

Loading next visibility...
Identifier
53015, 2022-076AF
Orbit
LEO
Country
Flag of USUS
Related business
Manufacturer
SpaceX/Seattle
Mission
Operational Commercial Communications
Bus & Motor
STARLINK, Unknown motor
Mass
297 kg wet, ~275 kg dry
Launch date (UTC)
2022-07-07 (3 years ago)
Launch vehicle
FALCON 9
Launch site
Air Force Eastern Test Range (AFETR)
Object type
Payload
Rocket body
Debris
Shape & HBR
Box + 1 Pan, 10.1 m
Radar Cross Section
13.562 m², Large (>1 m²)

Expand to show TLE details & history
Last TLE update: 15 hours ago

TLE from 15 hours ago
0 STARLINK-4262
1 53015U 22076AF  25341.14924723  .00000814  00000-0  69207-4 0  9999
2 53015  53.2179 139.5496 0001249  96.7697 263.3437 15.08838548189017
Epoch: 2025-12-07T03:34Z
TLE epoch observation values (Epoch: 2025-12-07T03:34:54.960Z)
Latitude
-0.00006°
Longitude
9.65378°
Altitude
540.746 km
Speed
7.593 km/s
True Right ascension
09h 18m 11s
True Declination
0° 00' 00"
Sunlit
Object was in daylight at epoch
Visualization orbit readout
Latitude
Unknown
Longitude
Unknown
Altitude
Unknown
Speed
Unknown
Apparent Right ascension
Unknown
Apparent Declination
Unknown
Sunlit
N/A
Visualization observer readout
Local Sidereal Time
16:43:01
Azimuth
Unknown
Elevation
Unknown
Doppler factor
Unknown
Orbital elements
Apogee altitude
540.857 km
Perigee altitude
539.129 km
Semi-major axis
6,918.13 km
Eccentricity
0.00012
Inclination
53.2179°
RAAN
139.5496°
Arg. of periapsis
96.7697°
True anomaly
263.32948°
Mean anomaly
263.3437°
Eccentric anomaly
263.33659°
Mean motion
3.7719 °/min
Orbital period
95.44 mins
BSTAR
0.000069207
Loading maneuver chart data...
Computing Atmospheric mass density...
Loading historical data...
Loading historical data...
Loading historical data...
Loading historical data...
Loading historical data...
Loading historical data...
Loading historical data...

Documentation

Showing up to 5 results
|